CHINASAT 9C

Last updated on Mon Oct 20 2025 00:02:51 GMT+0000 (Coordinated Universal Time)

1 64470U 25132A 25292.12405774 -.00000250 00000+0 00000+0 0 9990 2 64470 0.0552 89.9432 0005487 159.0668 275.7243 1.00270948 1731
UTC large
Height (km)
Speed (km/s)
/
Latitude / Longitude
Inclination (degrees)
Orbital Period (minutes)
Azimuth
Elevation
Range (km)
Doppler Factor

Next 0 passes for location: London (51.5072 / 0.1276)

Sorry there are no passes over London.